El Centro, CA

12:40 AM PST on December 17, 2017 (GMT -0800)
El Centro Naval Air Facility

Weather History for KNJK - August, 2014

Change the Weather History Date:

Friday, August 29, 2014

  Actual Average Record
Temperature  
Mean Temperature 95 °F -  
Max Temperature 113 °F 102 °F 116 °F (2005)
Min Temperature 79 °F 78 °F 69 °F (1997)
Cooling Degree Days 30    
Growing Degree Days 45 (Base 50)    
Moisture  
Dew Point 45 °F    
Average Humidity 19    
Maximum Humidity 36    
Minimum Humidity 7    
Precipitation  
Precipitation 0.00 in - - ()
Sea Level Pressure  
Sea Level Pressure 29.74 in    
Wind  
Wind Speed 7 mph (WSW)    
Max Wind Speed 12 mph    
Max Gust Speed -    
Visibility 10 miles    
Events      
Averages and records for this station are not official NWS values.
T = Trace of Precipitation, MM = Missing Value Source: NWS Daily Summary

Daily Weather History Graph

Daily Weather History Graph

Search for Another Location

Airport or City:

Trip Planner

Search our weather history database for the weather conditions in past years. The results will help you decide how hot, cold, wet, or windy it might be!

Date:

Astronomy

Aug. 29, 2014 Rise Set
Actual Time 6:15 AM PDT 7:11 PM PDT
Civil Twilight 5:50 AM PDT 7:36 PM PDT
Nautical Twilight 5:20 AM PDT 8:06 PM PDT
Astronomical Twilight 4:49 AM PDT 8:36 PM PDT
Moon 9:54 AM PDT (8/29) 9:27 PM PDT (8/29)
Length of Visible Light 13h 46m
Length of Day
12h 55m
Waxing Crescent, 16% of the Moon is Illuminated
Aug 29
Waxing Crescent
Sep 2
First Quarter
Sep 8
Full
Sep 15
Last Quarter
Sep 23
New

Hourly Weather History & Observations

Time (PDT) Temp. Dew Point Humidity Pressure Visibility Wind Dir Wind Speed Gust Speed Precip Events Conditions
12:56 AM 84.9 °F 46.9 °F 27% 29.79 in 10.0 mi West 8.1 mph - N/A   Clear
1:56 AM 84.9 °F 46.0 °F 26% 29.78 in 10.0 mi West 11.5 mph - N/A   Clear
2:56 AM 82.9 °F 46.9 °F 28% 29.78 in 10.0 mi NW 4.6 mph - N/A   Clear
3:56 AM 84.0 °F 46.0 °F 26% 29.78 in 10.0 mi West 5.8 mph - N/A   Clear
4:56 AM 80.1 °F 46.9 °F 31% 29.77 in 10.0 mi WNW 5.8 mph - N/A   Clear
5:56 AM 80.1 °F 46.9 °F 31% 29.78 in 10.0 mi West 5.8 mph - N/A   Clear
6:56 AM 79.0 °F 50.0 °F 36% 29.79 in 10.0 mi SW 6.9 mph - N/A   Clear
7:56 AM 86.0 °F 48.0 °F 27% 29.80 in 10.0 mi West 4.6 mph - N/A   Clear
8:56 AM 93.9 °F 48.9 °F 21% 29.81 in 10.0 mi West 3.5 mph - N/A   Clear
9:56 AM 99.0 °F 50.0 °F 19% 29.81 in 10.0 mi East 4.6 mph - N/A   Clear
10:56 AM 104.0 °F 46.9 °F 15% 29.80 in 10.0 mi Calm Calm - N/A   Clear
11:56 AM 106.0 °F 48.0 °F 14% 29.78 in 10.0 mi SE 5.8 mph - N/A   Clear
12:56 PM 108.0 °F 41.0 °F 10% 29.76 in 10.0 mi Variable 6.9 mph - N/A   Clear
1:56 PM 111.0 °F 36.0 °F 8% 29.73 in 10.0 mi Variable 3.5 mph - N/A   Clear
2:56 PM 111.0 °F 37.0 °F 8% 29.70 in 10.0 mi Variable 4.6 mph - N/A   Clear
3:56 PM 111.9 °F 34.0 °F 7% 29.68 in 10.0 mi Variable 5.8 mph - N/A   Clear
4:56 PM 111.0 °F 35.1 °F 7% 29.67 in 10.0 mi East 6.9 mph - N/A   Clear
5:56 PM 111.0 °F 36.0 °F 8% 29.66 in 10.0 mi ENE 6.9 mph - N/A   Clear
6:56 PM 105.1 °F 46.9 °F 14% 29.66 in 10.0 mi East 4.6 mph - N/A   Clear
7:56 PM 100.0 °F 43.0 °F 14% 29.68 in 10.0 mi SSW 11.5 mph - N/A   Clear
8:56 PM 97.0 °F 48.9 °F 19% 29.70 in 10.0 mi SW 11.5 mph - N/A   Clear
9:56 PM 93.0 °F 48.9 °F 22% 29.71 in 10.0 mi WSW 9.2 mph - N/A   Clear
10:56 PM 90.0 °F 48.0 °F 24% 29.71 in 10.0 mi WSW 10.4 mph - N/A   Clear
11:56 PM 87.1 °F 48.0 °F 26% 29.72 in 10.0 mi WSW 9.2 mph - N/A   Clear